Hourly Weather Chalyshchivka

Today, 19 June, Saturday

Time Temperature Precipitation Wind Pressure Humidity
00:00 +17°C° 0 mm 4 mps 752 mmHg 93%
01:00 +17°C° 0 mm 4 mps 752 mmHg 94%
02:00 +16°C° 0 mm 3 mps 752 mmHg 94%
03:00 +17°C° 0 mm 3 mps 752 mmHg 93%
04:00 +17°C° 0 mm 4 mps 752 mmHg 92%
05:00 +17°C° 0 mm 4 mps 752 mmHg 90%
06:00 +19°C° 0 mm 4 mps 752 mmHg 86%
07:00 +21°C° 0 mm 4 mps 752 mmHg 81%
08:00 +22°C° 0 mm 5 mps 753 mmHg 76%
09:00 +23°C° 0 mm 5 mps 753 mmHg 72%
10:00 +26°C° 0 mm 6 mps 753 mmHg 68%
11:00 +27°C° 0 mm 6 mps 752 mmHg 64%
12:00 +27°C° 0 mm 6 mps 752 mmHg 64%
13:00 +27°C° 0 mm 6 mps 752 mmHg 63%
14:00 +28°C° 0 mm 6 mps 752 mmHg 63%
15:00 +27°C° 0 mm 6 mps 752 mmHg 66%
16:00 +27°C° 0 mm 5 mps 752 mmHg 70%
17:00 +26°C° 0 mm 5 mps 751 mmHg 74%
18:00 +25°C° 0 mm 4 mps 752 mmHg 79%
19:00 +22°C° 0 mm 4 mps 752 mmHg 84%
20:00 +21°C° 0 mm 4 mps 752 mmHg 90%
21:00 +20°C° 0 mm 4 mps 752 mmHg 91%
22:00 +19°C° 0 mm 4 mps 752 mmHg 92%
23:00 +19°C° 0 mm 4 mps 751 mmHg 93%

Tomorrow, 20 June, Sunday

Time Temperature Precipitation Wind Pressure Humidity
00:00 +18°C° 0 mm 4 mps 751 mmHg 93%
01:00 +18°C° 0 mm 4 mps 751 mmHg 94%
02:00 +17°C° 0 mm 4 mps 751 mmHg 94%
03:00 +17°C° 0 mm 4 mps 751 mmHg 92%
04:00 +17°C° 0 mm 4 mps 751 mmHg 90%
05:00 +17°C° 0 mm 4 mps 751 mmHg 87%
06:00 +19°C° 0 mm 5 mps 751 mmHg 82%
07:00 +20°C° 0 mm 5 mps 751 mmHg 76%
08:00 +22°C° 0 mm 6 mps 751 mmHg 71%
09:00 +23°C° 0 mm 6 mps 751 mmHg 67%
10:00 +24°C° 0 mm 6 mps 751 mmHg 64%
11:00 +26°C° 0 mm 6 mps 751 mmHg 60%
12:00 +26°C° 0 mm 6 mps 750 mmHg 62%
13:00 +27°C° 0 mm 6 mps 750 mmHg 63%
14:00 +27°C° 0 mm 5 mps 750 mmHg 65%
15:00 +26°C° 0 mm 5 mps 750 mmHg 68%
16:00 +26°C° 0 mm 5 mps 749 mmHg 71%
17:00 +25°C° 0 mm 5 mps 749 mmHg 74%
18:00 +23°C° 0 mm 4 mps 749 mmHg 78%
19:00 +22°C° 0 mm 4 mps 749 mmHg 82%
20:00 +21°C° 0 mm 4 mps 749 mmHg 86%
21:00 +20°C° 0 mm 4 mps 749 mmHg 85%
22:00 +20°C° 0 mm 4 mps 749 mmHg 84%
23:00 +20°C° 0 mm 4 mps 748 mmHg 83%

Day after tomorrow, 21 June, Monday

Time Temperature Precipitation Wind Pressure Humidity
00:00 +19°C° 0 mm 4 mps 748 mmHg 85%
01:00 +19°C° 0 mm 4 mps 748 mmHg 87%
02:00 +18°C° 0 mm 4 mps 748 mmHg 88%
03:00 +18°C° 0 mm 4 mps 748 mmHg 87%
04:00 +18°C° 0 mm 4 mps 747 mmHg 85%
05:00 +19°C° 0 mm 4 mps 747 mmHg 83%
06:00 +20°C° 0 mm 5 mps 747 mmHg 79%
07:00 +22°C° 0 mm 5 mps 747 mmHg 76%
08:00 +23°C° 0 mm 5 mps 747 mmHg 72%
09:00 +25°C° 0 mm 5 mps 747 mmHg 69%
10:00 +26°C° 0 mm 5 mps 747 mmHg 66%
11:00 +28°C° 0 mm 5 mps 747 mmHg 63%
12:00 +28°C° 0 mm 6 mps 747 mmHg 62%
13:00 +29°C° 0 mm 6 mps 747 mmHg 61%
14:00 +30°C° 0 mm 6 mps 747 mmHg 60%
15:00 +29°C° 0 mm 6 mps 747 mmHg 63%
16:00 +28°C° 0 mm 5 mps 747 mmHg 66%
17:00 +28°C° 0 mm 5 mps 747 mmHg 69%
18:00 +26°C° 0 mm 5 mps 747 mmHg 75%
19:00 +25°C° 0 mm 4 mps 747 mmHg 80%
20:00 +22°C° 0 mm 3 mps 747 mmHg 86%
21:00 +21°C° 0 mm 3 mps 747 mmHg 88%
22:00 +21°C° 0 mm 3 mps 747 mmHg 90%
23:00 +20°C° 0 mm 3 mps 747 mmHg 93%

22 June, Tuesday

Time Temperature Precipitation Wind Pressure Humidity
00:00 +20°C° 0 mm 3 mps 747 mmHg 92%
01:00 +19°C° 0 mm 3 mps 747 mmHg 92%
02:00 +19°C° 0 mm 3 mps 747 mmHg 91%
03:00 +19°C° 0 mm 3 mps 747 mmHg 90%
04:00 +19°C° 0 mm 3 mps 747 mmHg 88%
05:00 +19°C° 0 mm 3 mps 747 mmHg 86%
06:00 +20°C° 0 mm 3 mps 748 mmHg 81%
07:00 +22°C° 0 mm 4 mps 748 mmHg 75%
08:00 +25°C° 0 mm 4 mps 748 mmHg 69%
09:00 +26°C° 0 mm 4 mps 748 mmHg 65%
10:00 +27°C° 0 mm 5 mps 748 mmHg 60%
11:00 +29°C° 0 mm 5 mps 748 mmHg 55%
12:00 +29°C° 0 mm 5 mps 748 mmHg 57%
13:00 +29°C° 0 mm 5 mps 748 mmHg 59%
14:00 +29°C° 0 mm 4 mps 748 mmHg 61%
15:00 +28°C° 0 mm 4 mps 748 mmHg 64%
16:00 +28°C° 0 mm 4 mps 748 mmHg 66%
17:00 +28°C° 0 mm 4 mps 748 mmHg 69%
18:00 +27°C° 0 mm 4 mps 748 mmHg 75%
19:00 +25°C° 0 mm 4 mps 748 mmHg 81%
20:00 +24°C° 0 mm 3 mps 748 mmHg 87%
21:00 +22°C° 0 mm 3 mps 748 mmHg 89%
22:00 +22°C° 0 mm 3 mps 748 mmHg 91%
23:00 +21°C° 0 mm 3 mps 748 mmHg 93%

23 June, Wednesday

Time Temperature Precipitation Wind Pressure Humidity
00:00 +21°C° 0 mm 3 mps 748 mmHg 92%
01:00 +21°C° 0 mm 3 mps 748 mmHg 92%
02:00 +20°C° 0 mm 3 mps 748 mmHg 92%
03:00 +20°C° 0 mm 3 mps 748 mmHg 91%
04:00 +21°C° 0 mm 3 mps 748 mmHg 90%
05:00 +21°C° 0 mm 4 mps 748 mmHg 88%
06:00 +22°C° 0 mm 4 mps 748 mmHg 82%
07:00 +25°C° 0 mm 4 mps 748 mmHg 76%
08:00 +26°C° 0 mm 5 mps 748 mmHg 70%
09:00 +28°C° 0 mm 5 mps 748 mmHg 66%
10:00 +29°C° 0 mm 5 mps 748 mmHg 61%
11:00 +30°C° 0 mm 6 mps 748 mmHg 57%
12:00 +32°C° 0 mm 6 mps 748 mmHg 57%
13:00 +32°C° 0 mm 5 mps 748 mmHg 57%
14:00 +33°C° 0 mm 5 mps 748 mmHg 57%
15:00 +32°C° 0 mm 5 mps 748 mmHg 61%
16:00 +30°C° 0 mm 5 mps 748 mmHg 65%
17:00 +29°C° 0 mm 4 mps 748 mmHg 68%
18:00 +28°C° 0 mm 4 mps 749 mmHg 73%
19:00 +27°C° 0 mm 3 mps 749 mmHg 78%
20:00 +25°C° 0 mm 3 mps 749 mmHg 83%
21:00 +25°C° 0 mm 3 mps 749 mmHg 84%
22:00 +24°C° 0 mm 3 mps 749 mmHg 86%
23:00 +24°C° 0 mm 3 mps 749 mmHg 87%

24 June, Thursday

Time Temperature Precipitation Wind Pressure Humidity
00:00 +24°C° 0 mm 3 mps 749 mmHg 87%
01:00 +23°C° 0 mm 2 mps 749 mmHg 87%
02:00 +23°C° 0 mm 2 mps 748 mmHg 88%
03:00 +23°C° 0 mm 2 mps 748 mmHg 86%
04:00 +23°C° 0 mm 2 mps 748 mmHg 85%
05:00 +23°C° 0 mm 2 mps 748 mmHg 84%
06:00 +24°C° 0 mm 3 mps 748 mmHg 81%
07:00 +25°C° 0 mm 3 mps 749 mmHg 77%
08:00 +26°C° 0 mm 3 mps 749 mmHg 73%
09:00 +28°C° 0 mm 4 mps 749 mmHg 67%
10:00 +29°C° 0 mm 4 mps 748 mmHg 61%
11:00 +32°C° 0 mm 5 mps 748 mmHg 55%
12:00 +32°C° 0 mm 5 mps 748 mmHg 54%
13:00 +33°C° 0 mm 5 mps 748 mmHg 53%
14:00 +33°C° 0 mm 5 mps 748 mmHg 52%
15:00 +33°C° 0 mm 4 mps 748 mmHg 57%
16:00 +32°C° 0 mm 4 mps 748 mmHg 61%
17:00 +30°C° 0 mm 4 mps 748 mmHg 65%
18:00 +28°C° 0 mm 4 mps 748 mmHg 70%
19:00 +26°C° 0 mm 3 mps 748 mmHg 74%
20:00 +24°C° 0 mm 3 mps 748 mmHg 79%
21:00 +24°C° 0 mm 3 mps 748 mmHg 79%
22:00 +22°C° 0 mm 3 mps 748 mmHg 79%
23:00 +21°C° 0 mm 3 mps 748 mmHg 79%
Show more

We Need Your Consent

Meteoprog and our Service Providers may store and access personal data such as cookies, device identifiers or other similar technologies on your device and process such data to personalise content and ads, as well as provide social media features and to analyse the traffic.

  • Store and/or access information on your device

    Cookies, device identifiers or other information can be stored or accessed on your device for the purposes indicated above.

  • Personalised ads and content, ad and content measurement, audience insights, and products development

    Ads and content can be personalised based on a profile. More data can be added to better personalise ads and content. Ad and content performance can be measured. Insights about the audience who saw the ads and content can be derived. Such data can be used to develop or improve user’s experience, systems and software.

By clicking ‘I Agree’ you will allow the use of indicated cookies, device identifiers, web beacons or other similar technologies. Your settings can be changed in the browser on your device.

For certain purposes, legitimate interests may be relied on, rather than consent. You can read more about this in our Privacy and Cookie Policy.